Time,TemperatureF,DewpointF,PressureIn,WindDirection,WindDirectionDegrees,WindSpeedMPH,WindSpeedGustMPH,Humidity,HourlyPrecipIn,Conditions,Clouds,dailyrainin,SoftwareType,DateUTC
2013-11-01 00:00:00,60.7,59.8,29.67,ENE,68,0.0,0.0,97,0.00,,,0.08,Wunderground v.1.15,2013-11-01 04:00:00,
2013-11-01 00:01:00,60.6,59.7,29.67,ENE,68,0.0,0.0,97,0.00,,,0.08,Wunderground v.1.15,2013-11-01 04:01:00,
2013-11-01 00:02:00,60.7,59.8,29.67,ENE,68,0.0,0.0,97,0.00,,,0.00,Wunderground v.1.15,2013-11-01 04:02:00,
2013-11-01 00:03:00,60.7,59.8,29.67,ENE,68,0.0,0.0,97,0.00,,,0.00,Wunderground v.1.15,2013-11-01 04:03:00,
2013-11-01 00:04:00,60.7,59.8,29.67,ENE,68,0.0,0.0,97,0.00,,,0.00,Wunderground v.1.15,2013-11-01 04:04:00,
2013-11-01 00:06:00,60.7,59.8,29.67,ENE,68,0.0,0.0,97,0.00,,,0.00,Wunderground v.1.15,2013-11-01 04:06:00,
2013-11-01 00:08:00,60.7,59.8,29.67,ENE,68,0.0,0.0,97,0.00,,,0.00,Wunderground v.1.15,2013-11-01 04:08:00,
2013-11-01 00:13:00,60.7,59.8,29.66,ENE,68,0.0,0.0,97,0.00,,,0.00,Wunderground v.1.15,2013-11-01 04:13:00,
2013-11-01 00:19:00,60.7,59.8,29.64,SE,137,0.0,2.0,97,0.00,,,0.00,Wunderground v.1.15,2013-11-01 04:19:00,
2013-11-01 00:24:00,60.7,59.8,29.64,SE,138,1.0,1.0,97,0.00,,,0.01,Wunderground v.1.15,2013-11-01 04:24:00,
2013-11-01 00:30:00,60.7,59.8,29.64,ESE,116,0.0,0.0,97,0.00,,,0.01,Wunderground v.1.15,2013-11-01 04:30:00,
2013-11-01 00:36:00,60.6,59.7,29.65,ESE,107,0.0,1.0,97,0.00,,,0.01,Wunderground v.1.15,2013-11-01 04:36:00,
2013-11-01 00:42:00,60.6,59.7,29.65,ESE,107,0.0,0.0,97,0.00,,,0.01,Wunderground v.1.15,2013-11-01 04:42:00,
2013-11-01 00:49:00,60.6,59.7,29.63,ESE,107,0.0,1.0,97,0.00,,,0.01,Wunderground v.1.15,2013-11-01 04:49:00,
2013-11-01 00:55:00,60.5,59.6,29.63,ESE,107,0.0,2.0,97,0.00,,,0.02,Wunderground v.1.15,2013-11-01 04:55:00,
2013-11-01 01:00:00,60.5,59.6,29.63,ESE,109,1.0,1.0,97,0.00,,,0.02,Wunderground v.1.15,2013-11-01 05:00:00,
2013-11-01 01:06:00,60.5,59.6,29.62,ESE,109,0.0,1.0,97,0.00,,,0.02,Wunderground v.1.15,2013-11-01 05:06:00,
2013-11-01 01:12:00,60.4,59.5,29.61,ESE,105,0.0,2.0,97,0.00,,,0.02,Wunderground v.1.15,2013-11-01 05:12:00,
2013-11-01 01:18:00,60.4,59.5,29.62,ESE,105,0.0,2.0,97,0.00,,,0.02,Wunderground v.1.15,2013-11-01 05:18:00,
2013-11-01 01:23:00,60.3,59.4,29.62,ESE,105,0.0,0.0,97,0.00,,,0.02,Wunderground v.1.15,2013-11-01 05:23:00,
2013-11-01 01:29:00,60.3,59.4,29.63,NE,46,0.0,2.0,97,0.00,,,0.02,Wunderground v.1.15,2013-11-01 05:29:00,
2013-11-01 01:34:00,60.3,59.4,29.63,NE,40,1.0,1.0,97,0.00,,,0.02,Wunderground v.1.15,2013-11-01 05:34:00,
2013-11-01 01:40:00,60.3,59.4,29.61,NE,50,1.0,2.0,97,0.00,,,0.02,Wunderground v.1.15,2013-11-01 05:40:00,
2013-11-01 01:49:00,60.2,59.3,29.59,ENE,63,0.0,0.0,97,0.00,,,0.02,Wunderground v.1.15,2013-11-01 05:49:00,
2013-11-01 01:55:00,60.1,59.2,29.61,NE,36,0.0,1.0,97,0.00,,,0.02,Wunderground v.1.15,2013-11-01 05:55:00,
2013-11-01 02:00:00,60.1,59.2,29.60,NE,36,1.0,1.0,97,0.00,,,0.02,Wunderground v.1.15,2013-11-01 06:00:00,
2013-11-01 02:06:00,60.0,59.1,29.60,NE,36,0.0,2.0,97,0.00,,,0.02,Wunderground v.1.15,2013-11-01 06:06:00,
2013-11-01 02:11:00,60.0,59.1,29.60,NE,36,0.0,0.0,97,0.00,,,0.02,Wunderground v.1.15,2013-11-01 06:11:00,
2013-11-01 02:17:00,59.9,59.0,29.60,NE,37,0.0,2.0,97,0.00,,,0.02,Wunderground v.1.15,2013-11-01 06:17:00,
2013-11-01 02:23:00,59.9,59.0,29.59,NE,37,0.0,0.0,97,0.00,,,0.02,Wunderground v.1.15,2013-11-01 06:23:00,
2013-11-01 02:29:00,59.9,59.0,29.58,NE,37,0.0,0.0,97,0.00,,,0.02,Wunderground v.1.15,2013-11-01 06:29:00,
2013-11-01 02:34:00,59.8,58.9,29.58,NE,37,0.0,0.0,97,0.00,,,0.03,Wunderground v.1.15,2013-11-01 06:34:00,
2013-11-01 02:39:00,59.8,58.9,29.58,NE,37,0.0,0.0,97,0.19,,,0.05,Wunderground v.1.15,2013-11-01 06:39:00,
2013-11-01 02:45:00,59.8,58.9,29.58,NE,37,0.0,0.0,97,0.18,,,0.07,Wunderground v.1.15,2013-11-01 06:45:00,
2013-11-01 02:51:00,59.7,58.8,29.57,NE,37,0.0,0.0,97,0.09,,,0.07,Wunderground v.1.15,2013-11-01 06:51:00,
2013-11-01 02:56:00,59.7,58.8,29.58,NE,37,0.0,3.0,97,0.07,,,0.08,Wunderground v.1.15,2013-11-01 06:56:00,
2013-11-01 03:01:00,59.7,58.8,29.58,North,360,0.0,0.0,97,0.07,,,0.08,Wunderground v.1.15,2013-11-01 07:01:00,
2013-11-01 03:06:00,59.7,58.8,29.58,North,360,0.0,0.0,97,0.08,,,0.09,Wunderground v.1.15,2013-11-01 07:06:00,
2013-11-01 03:12:00,59.7,58.8,29.57,North,360,0.0,0.0,97,0.06,,,0.09,Wunderground v.1.15,2013-11-01 07:12:00,
2013-11-01 03:18:00,59.7,58.8,29.57,North,360,0.0,1.0,97,0.17,,,0.11,Wunderground v.1.15,2013-11-01 07:18:00,
2013-11-01 03:24:00,59.7,58.8,29.57,North,360,0.0,0.0,97,0.08,,,0.12,Wunderground v.1.15,2013-11-01 07:24:00,
2013-11-01 03:29:00,59.7,58.8,29.57,NE,40,0.0,2.0,97,0.18,,,0.13,Wunderground v.1.15,2013-11-01 07:29:00,
2013-11-01 03:35:00,59.7,58.8,29.57,NE,40,1.0,2.0,97,0.08,,,0.14,Wunderground v.1.15,2013-11-01 07:35:00,
2013-11-01 03:41:00,59.8,58.9,29.57,NE,53,1.0,1.0,97,0.08,,,0.14,Wunderground v.1.15,2013-11-01 07:41:00,
2013-11-01 03:49:00,59.8,58.9,29.56,NE,53,0.0,0.0,97,0.04,,,0.15,Wunderground v.1.15,2013-11-01 07:49:00,
2013-11-01 03:55:00,59.8,58.9,29.55,NE,53,0.0,2.0,97,0.04,,,0.15,Wunderground v.1.15,2013-11-01 07:55:00,
2013-11-01 04:00:00,59.8,58.9,29.55,NE,53,0.0,0.0,97,0.19,,,0.16,Wunderground v.1.15,2013-11-01 08:00:00,
2013-11-01 04:06:00,59.9,59.0,29.54,NE,53,0.0,0.0,97,0.18,,,0.18,Wunderground v.1.15,2013-11-01 08:06:00,
2013-11-01 04:11:00,59.9,59.0,29.55,NE,53,0.0,0.0,97,0.71,,,0.21,Wunderground v.1.15,2013-11-01 08:11:00,
2013-11-01 04:17:00,59.9,59.0,29.55,NE,53,0.0,2.0,97,0.14,,,0.23,Wunderground v.1.15,2013-11-01 08:17:00,
2013-11-01 04:23:00,60.0,59.1,29.55,NE,53,1.0,2.0,97,0.11,,,0.24,Wunderground v.1.15,2013-11-01 08:23:00,
2013-11-01 04:29:00,60.0,59.1,29.54,NE,53,1.0,2.0,97,0.05,,,0.24,Wunderground v.1.15,2013-11-01 08:29:00,
2013-11-01 04:34:00,60.0,59.1,29.53,ENE,65,1.0,2.0,97,0.04,,,0.25,Wunderground v.1.15,2013-11-01 08:34:00,
2013-11-01 04:39:00,60.0,59.1,29.52,ENE,65,1.0,2.0,97,0.04,,,0.25,Wunderground v.1.15,2013-11-01 08:39:00,
2013-11-01 04:44:00,60.0,59.1,29.53,ENE,65,1.0,1.0,97,0.04,,,0.25,Wunderground v.1.15,2013-11-01 08:44:00,
2013-11-01 04:49:00,60.1,59.2,29.52,ENE,65,0.0,0.0,97,0.04,,,0.25,Wunderground v.1.15,2013-11-01 08:49:00,
2013-11-01 04:55:00,60.1,59.2,29.52,ENE,65,0.0,1.0,97,0.00,,,0.25,Wunderground v.1.15,2013-11-01 08:55:00,
2013-11-01 05:00:00,60.2,59.3,29.52,ENE,65,1.0,1.0,97,0.00,,,0.26,Wunderground v.1.15,2013-11-01 09:00:00,
2013-11-01 05:06:00,60.2,59.3,29.51,ENE,65,1.0,1.0,97,0.00,,,0.26,Wunderground v.1.15,2013-11-01 09:06:00,
2013-11-01 05:11:00,60.2,59.3,29.51,ENE,65,0.0,1.0,97,0.05,,,0.27,Wunderground v.1.15,2013-11-01 09:11:00,
2013-11-01 05:17:00,60.2,59.3,29.51,ENE,65,0.0,1.0,97,0.22,,,0.29,Wunderground v.1.15,2013-11-01 09:17:00,
2013-11-01 05:23:00,60.2,59.3,29.50,ENE,65,0.0,0.0,97,0.18,,,0.31,Wunderground v.1.15,2013-11-01 09:23:00,
2013-11-01 05:28:00,60.2,59.3,29.51,ENE,65,0.0,0.0,97,0.11,,,0.31,Wunderground v.1.15,2013-11-01 09:28:00,
2013-11-01 05:34:00,60.2,59.3,29.51,ENE,65,0.0,0.0,97,0.27,,,0.33,Wunderground v.1.15,2013-11-01 09:34:00,
2013-11-01 05:40:00,60.2,59.3,29.51,ENE,65,0.0,0.0,97,0.12,,,0.34,Wunderground v.1.15,2013-11-01 09:40:00,
2013-11-01 05:45:00,60.2,59.3,29.51,ENE,65,0.0,0.0,97,0.07,,,0.34,Wunderground v.1.15,2013-11-01 09:45:00,
2013-11-01 05:50:00,60.2,59.6,29.51,ENE,65,0.0,1.0,98,0.06,,,0.35,Wunderground v.1.15,2013-11-01 09:50:00,
2013-11-01 05:55:00,60.2,59.6,29.51,ENE,65,0.0,1.0,98,0.06,,,0.35,Wunderground v.1.15,2013-11-01 09:55:00,
2013-11-01 06:00:00,60.2,59.6,29.51,ENE,64,0.0,2.0,98,0.04,,,0.36,Wunderground v.1.15,2013-11-01 10:00:00,
2013-11-01 06:06:00,60.2,59.3,29.50,ENE,64,1.0,2.0,97,0.04,,,0.36,Wunderground v.1.15,2013-11-01 10:06:00,
2013-11-01 06:12:00,60.2,59.6,29.51,ENE,67,1.0,2.0,98,0.04,,,0.36,Wunderground v.1.15,2013-11-01 10:12:00,
2013-11-01 06:17:00,60.2,59.6,29.51,ENE,62,1.0,3.0,98,0.04,,,0.36,Wunderground v.1.15,2013-11-01 10:17:00,
2013-11-01 06:22:00,60.2,59.6,29.51,NE,39,1.0,1.0,98,0.00,,,0.36,Wunderground v.1.15,2013-11-01 10:22:00,
2013-11-01 06:27:00,60.3,59.7,29.51,NE,39,0.0,1.0,98,0.00,,,0.36,Wunderground v.1.15,2013-11-01 10:27:00,
2013-11-01 06:33:00,60.3,59.7,29.52,NE,39,0.0,0.0,98,0.00,,,0.36,Wunderground v.1.15,2013-11-01 10:33:00,
2013-11-01 06:39:00,60.4,59.8,29.52,NE,39,0.0,0.0,98,0.00,,,0.37,Wunderground v.1.15,2013-11-01 10:39:00,
2013-11-01 06:44:00,60.4,59.8,29.51,NE,39,0.0,0.0,98,0.16,,,0.39,Wunderground v.1.15,2013-11-01 10:44:00,
2013-11-01 06:49:00,60.5,59.9,29.51,NE,39,0.0,0.0,98,0.10,,,0.39,Wunderground v.1.15,2013-11-01 10:49:00,
2013-11-01 06:54:00,60.6,60.0,29.51,NE,39,0.0,0.0,98,0.05,,,0.39,Wunderground v.1.15,2013-11-01 10:54:00,
2013-11-01 06:59:00,60.8,60.2,29.51,NE,39,0.0,2.0,98,0.04,,,0.39,Wunderground v.1.15,2013-11-01 10:59:00,
2013-11-01 07:04:00,61.1,60.5,29.52,NE,39,0.0,1.0,98,0.00,,,0.39,Wunderground v.1.15,2013-11-01 11:04:00,
2013-11-01 07:09:00,61.2,60.6,29.51,NE,39,0.0,1.0,98,0.00,,,0.39,Wunderground v.1.15,2013-11-01 11:09:00,
2013-11-01 07:15:00,61.1,60.5,29.51,NE,39,0.0,1.0,98,0.00,,,0.40,Wunderground v.1.15,2013-11-01 11:15:00,
2013-11-01 07:20:00,61.0,60.4,29.51,NE,39,0.0,1.0,98,0.00,,,0.40,Wunderground v.1.15,2013-11-01 11:20:00,
2013-11-01 07:26:00,61.0,60.4,29.51,NE,39,0.0,1.0,98,0.04,,,0.41,Wunderground v.1.15,2013-11-01 11:26:00,
2013-11-01 07:31:00,60.9,60.3,29.51,NE,39,0.0,0.0,98,0.04,,,0.41,Wunderground v.1.15,2013-11-01 11:31:00,
2013-11-01 07:37:00,60.8,60.2,29.52,NE,39,0.0,0.0,98,0.04,,,0.41,Wunderground v.1.15,2013-11-01 11:37:00,
2013-11-01 07:42:00,60.7,59.8,29.52,NE,39,0.0,0.0,97,0.61,,,0.43,Wunderground v.1.15,2013-11-01 11:42:00,
2013-11-01 07:48:00,60.5,59.6,29.52,NE,39,0.0,2.0,97,0.40,,,0.47,Wunderground v.1.15,2013-11-01 11:48:00,
2013-11-01 07:54:00,60.3,59.4,29.52,NE,39,0.0,2.0,97,0.09,,,0.48,Wunderground v.1.15,2013-11-01 11:54:00,
2013-11-01 07:59:00,60.3,59.4,29.52,NE,39,0.0,1.0,97,0.09,,,0.48,Wunderground v.1.15,2013-11-01 11:59:00,
2013-11-01 08:04:00,60.2,59.3,29.52,NE,39,0.0,1.0,97,0.06,,,0.49,Wunderground v.1.15,2013-11-01 12:04:00,
2013-11-01 08:09:00,60.1,59.2,29.53,NE,39,0.0,1.0,97,0.10,,,0.49,Wunderground v.1.15,2013-11-01 12:09:00,
2013-11-01 08:15:00,60.0,59.1,29.53,NNW,342,0.0,1.0,97,0.17,,,0.51,Wunderground v.1.15,2013-11-01 12:15:00,
2013-11-01 08:21:00,59.9,59.0,29.53,NNE,28,0.0,1.0,97,0.07,,,0.52,Wunderground v.1.15,2013-11-01 12:21:00,
2013-11-01 08:26:00,59.7,58.8,29.52,NE,49,0.0,1.0,97,0.07,,,0.52,Wunderground v.1.15,2013-11-01 12:26:00,
2013-11-01 08:31:00,59.6,58.7,29.53,NE,49,1.0,1.0,97,0.08,,,0.53,Wunderground v.1.15,2013-11-01 12:31:00,
2013-11-01 08:37:00,59.2,58.3,29.53,NE,51,0.0,1.0,97,0.06,,,0.53,Wunderground v.1.15,2013-11-01 12:37:00,
2013-11-01 08:43:00,59.0,58.2,29.53,East,80,0.0,1.0,97,0.04,,,0.54,Wunderground v.1.15,2013-11-01 12:43:00,
2013-11-01 08:48:00,58.6,57.8,29.53,NNW,327,0.0,0.0,97,0.17,,,0.55,Wunderground v.1.15,2013-11-01 12:48:00,
2013-11-01 08:54:00,58.4,57.6,29.53,WNW,302,1.0,1.0,97,0.12,,,0.56,Wunderground v.1.15,2013-11-01 12:54:00,
2013-11-01 08:59:00,58.3,57.5,29.54,WNW,302,0.0,0.0,97,0.07,,,0.56,Wunderground v.1.15,2013-11-01 12:59:00,
2013-11-01 09:05:00,58.2,57.4,29.54,WNW,302,0.0,0.0,97,0.04,,,0.56,Wunderground v.1.15,2013-11-01 13:05:00,
2013-11-01 09:11:00,58.2,57.4,29.54,WNW,302,0.0,0.0,97,0.00,,,0.56,Wunderground v.1.15,2013-11-01 13:11:00,
2013-11-01 09:17:00,58.2,57.4,29.54,WNW,302,0.0,0.0,97,0.00,,,0.56,Wunderground v.1.15,2013-11-01 13:17:00,
2013-11-01 09:22:00,58.2,57.4,29.54,WNW,302,0.0,0.0,97,0.00,,,0.56,Wunderground v.1.15,2013-11-01 13:22:00,
2013-11-01 09:27:00,58.3,57.5,29.54,WNW,302,0.0,0.0,97,0.00,,,0.56,Wunderground v.1.15,2013-11-01 13:27:00,
2013-11-01 09:33:00,58.4,57.6,29.54,North,360,0.0,1.0,97,0.00,,,0.56,Wunderground v.1.15,2013-11-01 13:33:00,
2013-11-01 09:39:00,58.4,57.6,29.54,North,355,0.0,1.0,97,0.00,,,0.56,Wunderground v.1.15,2013-11-01 13:39:00,
2013-11-01 09:44:00,58.5,57.7,29.55,North,355,0.0,0.0,97,0.00,,,0.56,Wunderground v.1.15,2013-11-01 13:44:00,
2013-11-01 09:49:00,58.4,57.6,29.55,ESE,111,0.0,0.0,97,0.00,,,0.56,Wunderground v.1.15,2013-11-01 13:49:00,
2013-11-01 09:55:00,58.4,57.6,29.55,ESE,111,0.0,0.0,97,0.00,,,0.56,Wunderground v.1.15,2013-11-01 13:55:00,
2013-11-01 10:00:00,58.6,57.8,29.56,ESE,111,0.0,0.0,97,0.00,,,0.56,Wunderground v.1.15,2013-11-01 14:00:00,
2013-11-01 10:06:00,58.9,58.1,29.55,ESE,111,0.0,0.0,97,0.00,,,0.56,Wunderground v.1.15,2013-11-01 14:06:00,
2013-11-01 10:12:00,59.0,58.2,29.54,ESE,111,0.0,0.0,97,0.00,,,0.56,Wunderground v.1.15,2013-11-01 14:12:00,
2013-11-01 10:17:00,59.1,58.2,29.55,ESE,111,0.0,0.0,97,0.00,,,0.56,Wunderground v.1.15,2013-11-01 14:17:00,
2013-11-01 10:23:00,59.4,58.5,29.55,ESE,111,0.0,0.0,97,0.00,,,0.56,Wunderground v.1.15,2013-11-01 14:23:00,
2013-11-01 10:29:00,59.6,58.7,29.55,ESE,111,0.0,0.0,97,0.00,,,0.56,Wunderground v.1.15,2013-11-01 14:29:00,
2013-11-01 10:35:00,60.0,59.1,29.55,ENE,61,0.0,1.0,97,0.00,,,0.56,Wunderground v.1.15,2013-11-01 14:35:00,
2013-11-01 10:40:00,60.3,59.4,29.55,ENE,61,0.0,0.0,97,0.00,,,0.56,Wunderground v.1.15,2013-11-01 14:40:00,
2013-11-01 10:48:00,60.3,58.6,29.54,WNW,292,0.0,0.0,94,0.00,,,0.56,Wunderground v.1.15,2013-11-01 14:48:00,
2013-11-01 10:54:00,60.6,58.9,29.54,NW,321,0.0,1.0,94,0.00,,,0.56,Wunderground v.1.15,2013-11-01 14:54:00,
2013-11-01 11:00:00,60.9,57.3,29.53,SE,139,1.0,1.0,88,0.00,,,0.56,Wunderground v.1.15,2013-11-01 15:00:00,
2013-11-01 11:06:00,61.2,57.6,29.53,NE,54,1.0,4.0,88,0.00,,,0.56,Wunderground v.1.15,2013-11-01 15:06:00,
2013-11-01 11:11:00,61.3,58.3,29.53,ENE,63,1.0,2.0,90,0.00,,,0.56,Wunderground v.1.15,2013-11-01 15:11:00,
2013-11-01 11:17:00,61.3,58.0,29.53,ENE,60,1.0,2.0,89,0.00,,,0.56,Wunderground v.1.15,2013-11-01 15:17:00,
2013-11-01 11:23:00,61.6,56.0,29.52,NNE,30,0.0,2.0,82,0.00,,,0.56,Wunderground v.1.15,2013-11-01 15:23:00,
2013-11-01 11:29:00,62.2,57.6,29.51,North,355,1.0,2.0,85,0.00,,,0.56,Wunderground v.1.15,2013-11-01 15:29:00,
2013-11-01 11:34:00,62.4,59.4,29.51,NE,51,1.0,1.0,90,0.00,,,0.56,Wunderground v.1.15,2013-11-01 15:34:00,
2013-11-01 11:40:00,62.3,57.1,29.51,North,360,0.0,0.0,83,0.00,,,0.56,Wunderground v.1.15,2013-11-01 15:40:00,
2013-11-01 11:48:00,62.7,57.1,29.51,NNW,348,0.0,1.0,82,0.00,,,0.56,Wunderground v.1.15,2013-11-01 15:48:00,
2013-11-01 11:54:00,63.3,58.7,29.51,SSW,205,0.0,1.0,85,0.00,,,0.56,Wunderground v.1.15,2013-11-01 15:54:00,
2013-11-01 11:59:00,63.6,57.3,29.50,SSW,205,0.0,3.0,80,0.00,,,0.56,Wunderground v.1.15,2013-11-01 15:59:00,
2013-11-01 12:05:00,63.9,52.3,29.51,West,263,1.0,7.0,66,0.00,,,0.56,Wunderground v.1.15,2013-11-01 16:05:00,
2013-11-01 12:10:00,64.6,51.7,29.51,NNE,27,1.0,1.0,63,0.00,,,0.56,Wunderground v.1.15,2013-11-01 16:10:00,
2013-11-01 12:16:00,65.3,52.4,29.50,SSW,209,0.0,1.0,63,0.00,,,0.56,Wunderground v.1.15,2013-11-01 16:16:00,
2013-11-01 12:22:00,65.8,55.7,29.50,North,350,0.0,0.0,70,0.00,,,0.56,Wunderground v.1.15,2013-11-01 16:22:00,
2013-11-01 12:28:00,66.3,55.0,29.51,North,350,0.0,1.0,67,0.00,,,0.56,Wunderground v.1.15,2013-11-01 16:28:00,
2013-11-01 12:33:00,66.6,56.5,29.50,North,350,0.0,1.0,70,0.00,,,0.56,Wunderground v.1.15,2013-11-01 16:33:00,
2013-11-01 12:38:00,66.7,55.4,29.50,WNW,292,0.0,1.0,67,0.00,,,0.56,Wunderground v.1.15,2013-11-01 16:38:00,
2013-11-01 12:44:00,67.2,54.2,29.50,SW,225,1.0,3.0,63,0.00,,,0.56,Wunderground v.1.15,2013-11-01 16:44:00,
2013-11-01 12:50:00,67.4,53.9,29.50,NE,46,1.0,2.0,62,0.00,,,0.56,Wunderground v.1.15,2013-11-01 16:50:00,
2013-11-01 12:56:00,67.5,57.0,29.50,NE,49,0.0,2.0,69,0.00,,,0.56,Wunderground v.1.15,2013-11-01 16:56:00,
2013-11-01 13:01:00,67.1,52.3,29.50,SE,128,0.0,2.0,59,0.00,,,0.56,Wunderground v.1.15,2013-11-01 17:01:00,
2013-11-01 13:06:00,67.3,52.5,29.50,SE,129,1.0,2.0,59,0.00,,,0.56,Wunderground v.1.15,2013-11-01 17:06:00,
2013-11-01 13:12:00,67.9,53.5,29.49,North,11,0.0,4.0,60,0.00,,,0.56,Wunderground v.1.15,2013-11-01 17:12:00,
2013-11-01 13:17:00,68.3,51.0,29.49,NW,305,1.0,4.0,54,0.00,,,0.56,Wunderground v.1.15,2013-11-01 17:17:00,
2013-11-01 13:23:00,69.0,55.9,29.48,WNW,302,0.0,2.0,63,0.00,,,0.56,Wunderground v.1.15,2013-11-01 17:23:00,
2013-11-01 13:28:00,69.0,57.6,29.47,WNW,302,0.0,2.0,67,0.00,,,0.56,Wunderground v.1.15,2013-11-01 17:28:00,
2013-11-01 13:34:00,69.1,56.8,29.47,North,5,0.0,1.0,65,0.00,,,0.56,Wunderground v.1.15,2013-11-01 17:34:00,
2013-11-01 13:39:00,69.1,55.1,29.47,North,5,0.0,1.0,61,0.00,,,0.56,Wunderground v.1.15,2013-11-01 17:39:00,
2013-11-01 13:45:00,69.1,55.1,29.46,NNW,345,0.0,2.0,61,0.00,,,0.56,Wunderground v.1.15,2013-11-01 17:45:00,
2013-11-01 13:50:00,69.4,49.9,29.46,ENE,63,0.0,2.0,50,0.00,,,0.56,Wunderground v.1.15,2013-11-01 17:50:00,
2013-11-01 13:56:00,69.8,52.9,29.46,North,355,1.0,2.0,55,0.00,,,0.56,Wunderground v.1.15,2013-11-01 17:56:00,
2013-11-01 14:01:00,69.7,50.8,29.45,NNW,336,1.0,1.0,51,0.00,,,0.56,Wunderground v.1.15,2013-11-01 18:01:00,
2013-11-01 14:07:00,69.9,50.4,29.45,North,5,1.0,2.0,50,0.00,,,0.56,Wunderground v.1.15,2013-11-01 18:07:00,
2013-11-01 14:12:00,70.1,53.7,29.45,NNE,33,0.0,1.0,56,0.00,,,0.56,Wunderground v.1.15,2013-11-01 18:12:00,
2013-11-01 14:17:00,70.3,49.7,29.44,NE,36,0.0,1.0,48,0.00,,,0.56,Wunderground v.1.15,2013-11-01 18:17:00,
2013-11-01 14:23:00,70.6,50.0,29.44,NW,324,1.0,2.0,48,0.00,,,0.56,Wunderground v.1.15,2013-11-01 18:23:00,
2013-11-01 14:28:00,70.7,55.7,29.43,NNW,343,0.0,2.0,59,0.00,,,0.56,Wunderground v.1.15,2013-11-01 18:28:00,
2013-11-01 14:33:00,70.6,48.8,29.43,North,355,0.0,1.0,46,0.00,,,0.56,Wunderground v.1.15,2013-11-01 18:33:00,
2013-11-01 14:39:00,70.7,51.1,29.43,NNW,348,1.0,3.0,50,0.00,,,0.56,Wunderground v.1.15,2013-11-01 18:39:00,
2013-11-01 14:44:00,70.8,50.1,29.42,NE,40,1.0,2.0,48,0.00,,,0.56,Wunderground v.1.15,2013-11-01 18:44:00,
2013-11-01 14:50:00,70.8,53.8,29.42,NE,37,1.0,2.0,55,0.00,,,0.56,Wunderground v.1.15,2013-11-01 18:50:00,
2013-11-01 14:55:00,70.6,47.6,29.42,NW,309,1.0,3.0,44,0.00,,,0.56,Wunderground v.1.15,2013-11-01 18:55:00,
2013-11-01 15:00:00,70.8,46.6,29.42,North,5,1.0,1.0,42,0.00,,,0.56,Wunderground v.1.15,2013-11-01 19:00:00,
2013-11-01 15:06:00,70.6,51.6,29.41,WNW,284,1.0,1.0,51,0.00,,,0.56,Wunderground v.1.15,2013-11-01 19:06:00,
2013-11-01 15:11:00,70.5,52.5,29.41,ENE,57,1.0,1.0,53,0.00,,,0.56,Wunderground v.1.15,2013-11-01 19:11:00,
2013-11-01 15:17:00,70.6,45.7,29.41,ESE,115,1.0,2.0,41,0.00,,,0.56,Wunderground v.1.15,2013-11-01 19:17:00,
2013-11-01 15:23:00,70.8,47.8,29.41,WSW,254,1.0,1.0,44,0.00,,,0.56,Wunderground v.1.15,2013-11-01 19:23:00,
2013-11-01 15:28:00,70.7,50.0,29.40,NE,44,0.0,1.0,48,0.00,,,0.56,Wunderground v.1.15,2013-11-01 19:28:00,
2013-11-01 15:34:00,70.2,45.4,29.40,North,355,1.0,1.0,41,0.00,,,0.56,Wunderground v.1.15,2013-11-01 19:34:00,
2013-11-01 15:40:00,70.1,45.3,29.40,WNW,302,1.0,1.0,41,0.00,,,0.56,Wunderground v.1.15,2013-11-01 19:40:00,
2013-11-01 15:45:00,69.5,48.4,29.40,NNW,332,1.0,4.0,47,0.00,,,0.56,Wunderground v.1.15,2013-11-01 19:45:00,
2013-11-01 15:51:00,69.3,43.9,29.40,NNE,32,1.0,2.0,40,0.00,,,0.56,Wunderground v.1.15,2013-11-01 19:51:00,
2013-11-01 15:56:00,69.7,48.6,29.40,NW,310,1.0,5.0,47,0.00,,,0.56,Wunderground v.1.15,2013-11-01 19:56:00,
2013-11-01 16:01:00,69.6,41.5,29.40,North,360,1.0,1.0,36,0.00,,,0.56,Wunderground v.1.15,2013-11-01 20:01:00,
2013-11-01 16:07:00,70.0,47.7,29.40,North,355,0.0,1.0,45,0.00,,,0.56,Wunderground v.1.15,2013-11-01 20:07:00,
2013-11-01 16:13:00,69.7,44.9,29.40,North,5,0.0,2.0,41,0.00,,,0.56,Wunderground v.1.15,2013-11-01 20:13:00,
2013-11-01 16:19:00,69.1,50.7,29.40,NNW,343,0.0,2.0,52,0.00,,,0.56,Wunderground v.1.15,2013-11-01 20:19:00,
2013-11-01 16:24:00,68.4,48.5,29.40,NW,325,0.0,1.0,49,0.00,,,0.56,Wunderground v.1.15,2013-11-01 20:24:00,
2013-11-01 16:30:00,67.6,50.9,29.41,WNW,302,0.0,0.0,55,0.00,,,0.56,Wunderground v.1.15,2013-11-01 20:30:00,
2013-11-01 16:36:00,66.5,48.3,29.41,NNE,21,1.0,3.0,52,0.00,,,0.56,Wunderground v.1.15,2013-11-01 20:36:00,
2013-11-01 16:41:00,66.6,46.8,29.41,WNW,300,1.0,1.0,49,0.00,,,0.56,Wunderground v.1.15,2013-11-01 20:41:00,
2013-11-01 16:48:00,66.1,49.5,29.41,WNW,300,1.0,1.0,55,0.00,,,0.56,Wunderground v.1.15,2013-11-01 20:48:00,
2013-11-01 16:54:00,65.6,49.5,29.41,North,360,1.0,3.0,56,0.00,,,0.56,Wunderground v.1.15,2013-11-01 20:54:00,
2013-11-01 16:59:00,65.3,43.4,29.41,ENE,61,1.0,2.0,45,0.00,,,0.56,Wunderground v.1.15,2013-11-01 20:59:00,
2013-11-01 17:05:00,64.7,48.6,29.41,WNW,291,1.0,3.0,56,0.00,,,0.56,Wunderground v.1.15,2013-11-01 21:05:00,
2013-11-01 17:11:00,64.2,50.5,29.41,WNW,294,1.0,1.0,61,0.00,,,0.56,Wunderground v.1.15,2013-11-01 21:11:00,
2013-11-01 17:16:00,63.8,48.3,29.41,North,360,1.0,3.0,57,0.00,,,0.56,Wunderground v.1.15,2013-11-01 21:16:00,
2013-11-01 17:21:00,63.3,46.4,29.41,NNW,335,1.0,2.0,54,0.00,,,0.56,Wunderground v.1.15,2013-11-01 21:21:00,
2013-11-01 17:26:00,62.9,49.2,29.41,NNW,327,1.0,2.0,61,0.00,,,0.56,Wunderground v.1.15,2013-11-01 21:26:00,
2013-11-01 17:32:00,62.1,47.6,29.41,NW,311,1.0,2.0,59,0.00,,,0.56,Wunderground v.1.15,2013-11-01 21:32:00,
2013-11-01 17:38:00,61.4,46.5,29.42,NW,325,1.0,2.0,58,0.00,,,0.56,Wunderground v.1.15,2013-11-01 21:38:00,
2013-11-01 17:44:00,60.8,47.3,29.42,NW,319,1.0,2.0,61,0.00,,,0.56,Wunderground v.1.15,2013-11-01 21:44:00,
2013-11-01 17:49:00,60.5,47.4,29.42,NNW,346,1.0,1.0,62,0.00,,,0.56,Wunderground v.1.15,2013-11-01 21:49:00,
2013-11-01 17:54:00,60.1,47.9,29.42,NNW,336,0.0,2.0,64,0.00,,,0.56,Wunderground v.1.15,2013-11-01 21:54:00,
2013-11-01 18:00:00,59.8,47.6,29.42,NNW,336,0.0,0.0,64,0.00,,,0.56,Wunderground v.1.15,2013-11-01 22:00:00,
2013-11-01 18:06:00,59.6,48.2,29.42,NNW,333,0.0,2.0,66,0.00,,,0.56,Wunderground v.1.15,2013-11-01 22:06:00,
2013-11-01 18:11:00,59.3,48.7,29.42,NNW,331,0.0,0.0,68,0.00,,,0.56,Wunderground v.1.15,2013-11-01 22:11:00,
2013-11-01 18:17:00,59.1,48.1,29.42,NW,325,0.0,1.0,67,0.00,,,0.56,Wunderground v.1.15,2013-11-01 22:17:00,
2013-11-01 18:22:00,58.9,48.7,29.42,NW,325,0.0,0.0,69,0.00,,,0.56,Wunderground v.1.15,2013-11-01 22:22:00,
2013-11-01 18:28:00,58.6,49.6,29.42,NW,324,0.0,0.0,72,0.00,,,0.56,Wunderground v.1.15,2013-11-01 22:28:00,
2013-11-01 18:33:00,58.4,49.4,29.43,NW,324,0.0,0.0,72,0.00,,,0.56,Wunderground v.1.15,2013-11-01 22:33:00,
2013-11-01 18:39:00,58.2,49.2,29.43,NW,323,0.0,0.0,72,0.00,,,0.56,Wunderground v.1.15,2013-11-01 22:39:00,
2013-11-01 18:45:00,58.0,49.4,29.43,NW,323,0.0,0.0,73,0.00,,,0.56,Wunderground v.1.15,2013-11-01 22:45:00,
2013-11-01 18:50:00,57.8,50.3,29.43,NW,323,0.0,0.0,76,0.00,,,0.56,Wunderground v.1.15,2013-11-01 22:50:00,
2013-11-01 18:55:00,57.5,50.0,29.44,NW,323,0.0,0.0,76,0.00,,,0.56,Wunderground v.1.15,2013-11-01 22:55:00,
2013-11-01 19:01:00,57.3,50.1,29.44,NW,323,0.0,0.0,77,0.00,,,0.56,Wunderground v.1.15,2013-11-01 23:01:00,
2013-11-01 19:07:00,57.1,50.3,29.44,NW,323,0.0,0.0,78,0.00,,,0.56,Wunderground v.1.15,2013-11-01 23:07:00,
2013-11-01 19:13:00,56.8,49.7,29.45,NW,324,0.0,1.0,77,0.00,,,0.56,Wunderground v.1.15,2013-11-01 23:13:00,
2013-11-01 19:19:00,56.5,49.4,29.45,NW,324,0.0,1.0,77,0.00,,,0.56,Wunderground v.1.15,2013-11-01 23:19:00,
2013-11-01 19:25:00,56.2,49.4,29.45,NW,324,0.0,0.0,78,0.00,,,0.56,Wunderground v.1.15,2013-11-01 23:25:00,
2013-11-01 19:31:00,55.8,49.0,29.45,NW,325,0.0,0.0,78,0.00,,,0.56,Wunderground v.1.15,2013-11-01 23:31:00,
2013-11-01 19:36:00,55.5,49.1,29.46,NW,325,0.0,0.0,79,0.00,,,0.56,Wunderground v.1.15,2013-11-01 23:36:00,
2013-11-01 19:42:00,55.4,48.3,29.46,North,355,0.0,0.0,77,0.00,,,0.56,Wunderground v.1.15,2013-11-01 23:42:00,
2013-11-01 19:48:00,55.1,48.7,29.46,North,355,0.0,0.0,79,0.00,,,0.56,Wunderground v.1.15,2013-11-01 23:48:00,
2013-11-01 19:54:00,54.8,48.4,29.47,NNW,336,0.0,1.0,79,0.00,,,0.56,Wunderground v.1.15,2013-11-01 23:54:00,
2013-11-01 20:00:00,54.5,48.5,29.47,NNW,336,0.0,0.0,80,0.00,,,0.56,Wunderground v.1.15,2013-11-02 00:00:00,
2013-11-01 20:06:00,54.3,48.6,29.48,NNW,345,0.0,0.0,81,0.00,,,0.56,Wunderground v.1.15,2013-11-02 00:06:00,
2013-11-01 20:11:00,54.1,48.4,29.48,NNW,345,0.0,0.0,81,0.00,,,0.56,Wunderground v.1.15,2013-11-02 00:11:00,
2013-11-01 20:16:00,53.9,48.5,29.49,NNW,331,0.0,0.0,82,0.00,,,0.56,Wunderground v.1.15,2013-11-02 00:16:00,
2013-11-01 20:22:00,53.7,48.3,29.49,NNW,331,0.0,0.0,82,0.00,,,0.56,Wunderground v.1.15,2013-11-02 00:22:00,
2013-11-01 20:28:00,53.6,48.6,29.50,NNW,331,0.0,0.0,83,0.00,,,0.56,Wunderground v.1.15,2013-11-02 00:28:00,
2013-11-01 20:34:00,53.4,48.7,29.50,NNW,331,0.0,0.0,84,0.00,,,0.56,Wunderground v.1.15,2013-11-02 00:34:00,
2013-11-01 20:39:00,53.3,48.6,29.50,NNW,340,0.0,0.0,84,0.00,,,0.56,Wunderground v.1.15,2013-11-02 00:39:00,
2013-11-01 20:45:00,53.2,48.5,29.50,NNW,340,0.0,1.0,84,0.00,,,0.56,Wunderground v.1.15,2013-11-02 00:45:00,
2013-11-01 20:50:00,53.1,48.1,29.50,NNW,340,0.0,0.0,83,0.00,,,0.56,Wunderground v.1.15,2013-11-02 00:50:00,
2013-11-01 20:55:00,53.1,48.1,29.50,NNW,338,0.0,1.0,83,0.00,,,0.56,Wunderground v.1.15,2013-11-02 00:55:00,
2013-11-01 21:00:00,53.0,48.3,29.50,NNW,338,0.0,1.0,84,0.00,,,0.56,Wunderground v.1.15,2013-11-02 01:00:00,
2013-11-01 21:06:00,53.0,48.3,29.50,NNW,338,0.0,1.0,84,0.00,,,0.56,Wunderground v.1.15,2013-11-02 01:06:00,
2013-11-01 21:12:00,53.0,48.3,29.50,NNW,336,0.0,0.0,84,0.00,,,0.56,Wunderground v.1.15,2013-11-02 01:12:00,
2013-11-01 21:18:00,52.9,48.5,29.51,NNW,336,0.0,0.0,85,0.00,,,0.56,Wunderground v.1.15,2013-11-02 01:18:00,
2013-11-01 21:23:00,52.8,48.1,29.51,NNW,336,0.0,0.0,84,0.00,,,0.56,Wunderground v.1.15,2013-11-02 01:23:00,
2013-11-01 21:29:00,52.7,48.3,29.51,NNW,336,0.0,0.0,85,0.00,,,0.56,Wunderground v.1.15,2013-11-02 01:29:00,
2013-11-01 21:35:00,52.5,47.8,29.51,NNW,335,0.0,1.0,84,0.00,,,0.56,Wunderground v.1.15,2013-11-02 01:35:00,
2013-11-01 21:40:00,52.4,47.7,29.51,NNW,335,0.0,0.0,84,0.00,,,0.56,Wunderground v.1.15,2013-11-02 01:40:00,
2013-11-01 21:45:00,52.2,47.5,29.51,NNW,335,0.0,0.0,84,0.00,,,0.56,Wunderground v.1.15,2013-11-02 01:45:00,
2013-11-01 21:51:00,52.0,47.3,29.51,NNW,335,0.0,0.0,84,0.00,,,0.56,Wunderground v.1.15,2013-11-02 01:51:00,
2013-11-01 21:56:00,51.9,47.5,29.51,NNW,335,0.0,1.0,85,0.00,,,0.56,Wunderground v.1.15,2013-11-02 01:56:00,
2013-11-01 22:01:00,51.8,47.4,29.51,NNW,335,0.0,0.0,85,0.00,,,0.56,Wunderground v.1.15,2013-11-02 02:01:00,
2013-11-01 22:07:00,51.7,47.3,29.52,NNW,335,0.0,0.0,85,0.00,,,0.56,Wunderground v.1.15,2013-11-02 02:07:00,
2013-11-01 22:13:00,51.6,46.9,29.52,NNW,335,0.0,0.0,84,0.00,,,0.56,Wunderground v.1.15,2013-11-02 02:13:00,
2013-11-01 22:19:00,51.5,47.1,29.52,NNW,335,0.0,0.0,85,0.00,,,0.56,Wunderground v.1.15,2013-11-02 02:19:00,
2013-11-01 22:24:00,51.4,47.0,29.52,NNW,335,0.0,0.0,85,0.00,,,0.56,Wunderground v.1.15,2013-11-02 02:24:00,
2013-11-01 22:30:00,51.3,46.9,29.53,NNW,335,0.0,0.0,85,0.00,,,0.56,Wunderground v.1.15,2013-11-02 02:30:00,
2013-11-01 22:36:00,51.2,46.8,29.53,NNW,335,0.0,0.0,85,0.00,,,0.56,Wunderground v.1.15,2013-11-02 02:36:00,
2013-11-01 22:42:00,51.0,46.6,29.53,NNW,335,0.0,0.0,85,0.00,,,0.56,Wunderground v.1.15,2013-11-02 02:42:00,
2013-11-01 22:48:00,50.9,46.9,29.53,NNW,335,0.0,0.0,86,0.00,,,0.56,Wunderground v.1.15,2013-11-02 02:48:00,
2013-11-01 22:54:00,50.8,46.8,29.54,NNW,335,0.0,0.0,86,0.00,,,0.56,Wunderground v.1.15,2013-11-02 02:54:00,
2013-11-01 22:59:00,50.6,46.6,29.54,NNW,335,0.0,1.0,86,0.00,,,0.56,Wunderground v.1.15,2013-11-02 02:59:00,
2013-11-01 23:04:00,50.6,46.6,29.54,NNW,335,0.0,0.0,86,0.00,,,0.56,Wunderground v.1.15,2013-11-02 03:04:00,
2013-11-01 23:10:00,50.5,46.8,29.54,NNW,335,0.0,0.0,87,0.00,,,0.56,Wunderground v.1.15,2013-11-02 03:10:00,
2013-11-01 23:16:00,50.4,46.7,29.55,NNW,335,0.0,0.0,87,0.00,,,0.56,Wunderground v.1.15,2013-11-02 03:16:00,
2013-11-01 23:21:00,50.3,46.6,29.55,NNW,335,0.0,0.0,87,0.00,,,0.56,Wunderground v.1.15,2013-11-02 03:21:00,
2013-11-01 23:27:00,50.3,46.9,29.55,NNW,335,0.0,2.0,88,0.00,,,0.56,Wunderground v.1.15,2013-11-02 03:27:00,
2013-11-01 23:33:00,50.2,46.5,29.56,NNW,335,0.0,0.0,87,0.00,,,0.56,Wunderground v.1.15,2013-11-02 03:33:00,
2013-11-01 23:38:00,50.2,46.8,29.55,NNW,335,0.0,0.0,88,0.00,,,0.56,Wunderground v.1.15,2013-11-02 03:38:00,
2013-11-01 23:44:00,50.1,46.7,29.55,NNW,335,0.0,0.0,88,0.00,,,0.56,Wunderground v.1.15,2013-11-02 03:44:00,
2013-11-01 23:49:00,50.1,46.7,29.56,NNW,335,0.0,0.0,88,0.00,,,0.56,Wunderground v.1.15,2013-11-02 03:49:00,
2013-11-01 23:55:00,50.1,46.7,29.56,NNW,335,0.0,0.0,88,0.00,,,0.56,Wunderground v.1.15,2013-11-02 03:55:00,